Regional Weather Roundup
Issued by NWS Albany, NY

Home | Current Version | Previous Version | Text Only | Print | Product List | Glossary On
Versions: 1 2 3 4 5 6 7 8 9 10 11 12 13 14 15 16 17 18 19 20 21 22 23 24 25 26 27 28 29 30 31 32 33 34 35 36 37 38 39 40 41 42 43 44 45 46 47 48 49 50
000
ASUS41 KALY 212210
RWRALY

NEW YORK STATE HOURLY WEATHER ROUNDUP
NATIONAL WEATHER SERVICE ALBANY NY
600 PM EDT THU SEP 21 2017

NOTE: "FAIR" INDICATES FEW OR NO CLOUDS BELOW 12,000 FEET WITH NO
SIGNIFICANT WEATHER AND/OR NO OBSTRUCTIONS TO VISIBILITY.

NYZ032-033-038>043-046>054-057>066-NYZ062>081-082-084-212300-
EAST


CITY           SKY/WX    TMP DP  RH WIND       PRES   REMARKS
ALBANY         MOCLDY    76  60  57 N6        30.06R
GLENS FALLS    CLOUDY    76  57  51 N5        30.07R
POUGHKEEPSIE   MOCLDY    77  62  59 N8        30.01S
NEWBURGH       MOCLDY    79  64  61 NE12      30.04S
MONTGOMERY     MOCLDY    75  67  76 N3        30.02S
WHITE PLAINS   MOCLDY    75  65  70 N9        30.01R
ISLIP          CLOUDY    73  63  70 N7        29.98R
NEW YORK CITY  CLOUDY    78  63  59 N10       29.99S
CENTRAL PARK   CLOUDY    79  60  52 VRB5      30.02S
$$

NYZ005>009-017-018-044>046-055-056-212300-
CENTRAL


CITY           SKY/WX    TMP DP  RH WIND       PRES   REMARKS
FULTON         CLOUDY    74  64  71 NW8       30.10R
SYRACUSE       CLOUDY    77  66  68 NW9       30.07R
ROME           PTSUNNY   77  66  68 W6        30.07R
ELMIRA         CLOUDY    77  64  64 N6        30.08R
BINGHAMTON     CLOUDY    74  64  71 N7        30.10S
MONTICELLO     PTCLDY    74  58  57 NW7       30.09R
$$

NYZ026>034-041>043-087-212300-
NORTH


CITY           SKY/WX    TMP DP  RH WIND       PRES   REMARKS
WATERTOWN      CLOUDY    76  63  64 N9        30.10R
FORT DRUM      NOT AVBL
OGDENSBURG     FAIR      77  57  50 NE5       30.11S
MASSENA        CLEAR     75  54  47 NE7       30.13R
SARANAC LAKE   CLOUDY    71  48  43 NE6       30.14R
PLATTSBURGH    CLOUDY    75  54  47 N8        30.10R
$$

NYZ001>004-010>016-019>021-085-212300-
WEST


CITY           SKY/WX    TMP DP  RH WIND       PRES   REMARKS
NIAGARA FALLS  SUNNY     81  66  60 NE9       30.09R
BUFFALO        MOSUNNY   81  62  52 NE7       30.09S
DUNKIRK        SUNNY     77  64  64 NE5       30.09F
JAMESTOWN      SUNNY     76  63  64 NW9       30.14R
WELLSVILLE     SUNNY     77  61  57 N6        30.16R
ROCHESTER      MOSUNNY   76  63  64 NE12      30.11R
PENN YAN       CLOUDY    78  61  55 CALM      30.11R
$$

             KEY
       WCI = WIND CHILL INDEX
       VSB = VISIBILITY
       HX  = HEAT INDEX
$$



USA.gov is the U.S. government's official web portal to all federal, state and local government web resources and services.